This is the latest recevied weather packets stored in our database for station/object KD7AWQ. If no packets are shown the sender has not sent any weather packets the latest 1 day(s).
| Time | Temp. | Humidity | Pressure | Rain* | Wind** | Luminosity | Snow |
|---|---|---|---|---|---|---|---|
| 1778012029 | 18.33° C | 36% | 1180.3 hPa | 0 mm | 7.15 m/s, 234° | 239 W/m² | - |
| 1778011727 | 18.33° C | 36% | 1180.4 hPa | 0 mm | 8.05 m/s, 226° | 213 W/m² | - |
| 1778011424 | 18.33° C | 37% | 1180.4 hPa | 0 mm | 9.39 m/s, 239° | 272 W/m² | - |
| 1778011119 | 18.33° C | 40% | 1180.3 hPa | 0 mm | 4.47 m/s, 243° | 369 W/m² | - |
| 1778010817 | 18.89° C | 42% | 1180.4 hPa | 0 mm | 4.92 m/s, 239° | 378 W/m² | - |
| 1778010514 | 17.78° C | 44% | 1180.4 hPa | 0 mm | 5.36 m/s, 286° | 1321 W/m² | - |
| 1778010211 | 18.33° C | 43% | 1180.4 hPa | 0 mm | 5.36 m/s, 294° | 246 W/m² | - |
| 1778009906 | 18.89° C | 43% | 1180.5 hPa | 0 mm | 6.26 m/s, 247° | 1382 W/m² | - |
| 1778009605 | 18.89° C | 44% | 1180.5 hPa | 0 mm | 6.26 m/s, 235° | 1187 W/m² | - |
| 1778009302 | 18.89° C | 43% | 1180.7 hPa | 0 mm | 5.36 m/s, 234° | 1237 W/m² | - |
| 1778009000 | 18.89° C | 46% | 1180.9 hPa | 0 mm | 5.36 m/s, 218° | 1190 W/m² | - |
| 1778008698 | 18.33° C | 51% | 1181.2 hPa | 0 mm | 4.02 m/s, 203° | 1263 W/m² | - |
| 1778008396 | 17.22° C | 52% | 1181 hPa | 0 mm | 4.92 m/s, 266° | 1314 W/m² | - |
| 1778008092 | 18.33° C | 50% | 1181.2 hPa | 0 mm | 5.81 m/s, 216° | 282 W/m² | - |
| 1778007788 | 17.78° C | 51% | 1181.4 hPa | 0 mm | 3.58 m/s, 237° | 418 W/m² | - |
| 1778007484 | 17.78° C | 52% | 1181.6 hPa | 0 mm | 3.13 m/s, 192° | 503 W/m² | - |
| 1778007180 | 17.78° C | 53% | 1181.8 hPa | 0 mm | 5.36 m/s, 214° | 743 W/m² | - |
| 1778006876 | 17.78° C | 54% | 1181.5 hPa | 0 mm | 4.02 m/s, 223° | 373 W/m² | - |
| 1778006574 | 17.22° C | 55% | 1181.6 hPa | 0 mm | 4.47 m/s, 250° | 457 W/m² | - |
| 1778006270 | 17.22° C | 58% | 1181.8 hPa | 0 mm | 3.13 m/s, 232° | 777 W/m² | - |
| 1778005968 | 17.78° C | 55% | 1181.4 hPa | 0 mm | 3.13 m/s, 254° | 290 W/m² | - |
| 1778005664 | 17.78° C | 52% | 1181.4 hPa | 0 mm | 2.24 m/s, 199° | 1281 W/m² | - |
| 1778005361 | 17.78° C | 59% | 1181.5 hPa | 0 mm | 0.89 m/s, 198° | 1280 W/m² | - |
| 1778005057 | 17.78° C | 55% | 1181.6 hPa | 0 mm | 1.79 m/s, 323° | 919 W/m² | - |
| 1778004755 | 17.78° C | 59% | 1182 hPa | 0 mm | 3.13 m/s, 285° | 1171 W/m² | - |
* Rain latest hour (hover to see other rain measurements)
** Current wind speed in m/s (hover to see current wind gust speed)